{"data":{"norad_id":49290,"epoch":"2026-05-25T02:19:31.106784Z","epoch_age_seconds":76881,"freshness":"FRESH","line1":"1 49290U 21090M   26145.09688781 -.00000015  00000+0 -69983-4 0  9997","line2":"2 49290  87.9172 279.0515 0001899 100.0900 260.0448 13.20770032228399","mean_motion":13.20770032,"eccentricity":0.0001899,"inclination_deg":87.9172,"raan_deg":279.0515,"arg_perigee_deg":100.09,"mean_anomaly_deg":260.0448,"bstar":-6.9983e-5,"rev_number":22839,"period_min":109.0273071853,"perigee_km":1180.3445403429,"apogee_km":1183.2157968836,"semimajor_km":7559.9171686133,"source":"CELESTRAK","updated_at":"2026-05-25T13:38:22.521459Z"}}